Participated 2 times
Between 1924 and 1925
Jean Majerus, Luxembourg
Tour de France 2026 starts from Barcelona, Spain in

Stats and Facts from
Tour de France.

2026   2025   2024   2023  2022  2021  2020  2019   2018  2017   2016   2015  2014  2013   2012   2011  2010   2009   2008   2007   2006   2005   2004   2003   2002   2001   2000   1999   1998   1997  1996   1995   1994   1993   1992  1991   1990   1989   1988   1987   1986   1985   1984   1983  1982  1981   1980   1979  1978  1977   1976  1975  1974  1973   1972   1971   1970  1969   1968   1967   1966   1965  1964  1963   1962   1961   1960   1959   1958   1957  1956   1955   1954   1953   1952  1951  1950  1949   1948  1947  1939   1938   1937   1936   1935   1934   1933  1932   1931   1930  1929   1928   1927   1926  1925  1924  1923   1922   1921   1920   1919  1914   1913   1912   1911   1910  1909   1908   1907   1906  1905  1904   1903 

Tourstats
Sitemap

After stage 21 - 2025:
 16451 starters.
  5463 different riders.
  689 teams.
  2398 stages.
  470 restdays.
  466506.50 km.
  5925 abandoned riders.

Click map for 2016 route.
Facts from Tour de France 2016
  |   Stages.  |   Stage winners.  |   Days in jerseys.  |   Teams.  |   All riders.  |   All riders by age.  |   All riders from.  |  

  |   Rookies.  |   Withdrawls.  |   Average speed.  |   GC.  |   Polka  |   Green  |   White  |   Summits. (In tour)  |   Miscellaneous.  |  

Stage 20 on July 23rd. 2016
Pick a stage:  1  2  3  4  5  6  7  8  9  10  11  12  13  14  15  16  17  18  19  20  21  

After stage 20:    Chris Froome    Rafał Majka    Peter Sagan    Adam Yates  
  MegèveMorzine | Dist: 146.00km. | Winner: Ion Izagirre

Podium
2  Col de l'Aravis - Thônes Thomas De Gendtafter21.00 km.

1  Col de la Colombiere  Thomas De Gendtafter45.50 km.

1  Col de la Ramaz Thomas De Gendtafter93.50 km.

HC  Col de Joux-Plane Jarlinson Pantanoafter134.50 km.


Average speed for all riders in stage:  32,530 km./hr.

1
 Ion Izagirre  Movistar04h 06' 45"=35,502  km/h

2
 Jarlinson Pantano  IAM Cycling04h 07' 04"+  00:00:19 =35,456  km/h

3
 Vincenzo Nibali  Astana Pro Team04h 07' 27"+  00:00:42 =35,401  km/h

4  Julian Alaphilippe  Etixx-Quick Step04h 07' 34"+  00:00:49 =35,384  km/h

7  Wilco Kelderman  Lotto NL-Jumbo04h 07' 34"+  00:00:49 =35,384  km/h

5  Rui Costa  Lampre-Merida04h 08' 28"+  00:01:43 =35,256  km/h

6  Roman Kreuziger  Tinkoff04h 08' 29"+  00:01:44 =35,254  km/h

8  Joaquin Rodriguez  Katusha04h 10' 09"+  00:03:24 =35,019  km/h

9  Dan Martin  Etixx-Quick Step04h 10' 57"+  00:04:12 =34,907  km/h

10  Romain Bardet  AG2R La Mondiale04h 10' 57"+  00:04:12 =34,907  km/h

11  Nairo Quintana  Movistar04h 10' 57"+  00:04:12 =34,907  km/h

12  Alejandro Valverde  Movistar04h 10' 59"+  00:04:14 =34,903  km/h

13  Adam Yates  ORICA BikeExchange04h 10' 59"+  00:04:14 =34,903  km/h

14  Louis Meintjes  Lampre-Merida04h 10' 59"+  00:04:14 =34,903  km/h

15  Rafał Majka  Tinkoff04h 11' 02"+  00:04:17 =34,896  km/h

16  Damiano Caruso  BMC04h 11' 03"+  00:04:18 =34,893  km/h

17  Wout Poels  Sky Procycling04h 11' 03"+  00:04:18 =34,893  km/h

18  Geraint Thomas  Sky Procycling04h 11' 03"+  00:04:18 =34,893  km/h

19  Sergio Henao  Sky Procycling04h 11' 03"+  00:04:18 =34,893  km/h

20  Chris Froome  Sky Procycling04h 11' 03"+  00:04:18 =34,893  km/h

21  Mikel Nieve  Sky Procycling04h 11' 03"+  00:04:18 =34,893  km/h

22  Richie Porte  BMC04h 11' 03"+  00:04:18 =34,893  km/h

23  Alexis Vuillermoz  AG2R La Mondiale04h 11' 29"+  00:04:44 =34,833  km/h

24  Pierre Rolland  Cannondale Pro Cycling04h 11' 36"+  00:04:51 =34,817  km/h

25  Thomas De Gendt  Lotto Soudal04h 12' 27"+  00:05:42 =34,700  km/h

26  Luis Angel Mate  Cofidis – Solutions Crédits04h 13' 31"+  00:06:46 =34,554  km/h

27  Daniel Moreno  Movistar04h 13' 40"+  00:06:55 =34,534  km/h

28  Jan Polanc  Lampre-Merida04h 13' 40"+  00:06:55 =34,534  km/h

29  Ilnur Zakarin  Katusha04h 13' 48"+  00:07:03 =34,515  km/h

30  Domenico Pozzovivo  AG2R La Mondiale04h 13' 54"+  00:07:09 =34,502  km/h

31  Sébastien Reichenbach  FDJ04h 14' 25"+  00:07:40 =34,432  km/h

32  Stef Clement  IAM Cycling04h 14' 49"+  00:08:04 =34,378  km/h

33  Pierre-Luc Périchon  Fortuneo-Vital Concept04h 15' 34"+  00:08:49 =34,277  km/h

34  Emanuel Buchmann  Bora-Argon 1804h 15' 55"+  00:09:10 =34,230  km/h

35  Bartosz Huzarski  Bora-Argon 1804h 15' 55"+  00:09:10 =34,230  km/h

36  Bauke Mollema  Trek-Segafredo04h 16' 34"+  00:09:49 =34,143  km/h

37  Arthur Vichot  FDJ04h 17' 06"+  00:10:21 =34,072  km/h

38  Haimar  Zubeldía  Trek-Segafredo04h 17' 25"+  00:10:40 =34,030  km/h

39  Julien Vermote  Etixx-Quick Step04h 17' 43"+  00:10:58 =33,991  km/h

40  Fränk Schleck  Trek-Segafredo04h 18' 12"+  00:11:27 =33,927  km/h

41  Sylvain Chavanel  Direct Energie04h 18' 44"+  00:11:59 =33,857  km/h

42  Reto Hollenstein  IAM Cycling04h 19' 02"+  00:12:17 =33,818  km/h

43  Martin Elmiger  IAM Cycling04h 19' 02"+  00:12:17 =33,818  km/h

44  Michael Valgren  Tinkoff04h 19' 02"+  00:12:17 =33,818  km/h

45  Simon Geschke  Giant-Alpecin04h 19' 08"+  00:12:23 =33,805  km/h

46  Nicolas Edet  Cofidis – Solutions Crédits04h 19' 36"+  00:12:51 =33,744  km/h

47  Jan Bakelants  AG2R La Mondiale04h 19' 36"+  00:12:51 =33,744  km/h

48  Anthony Roux  FDJ04h 20' 02"+  00:13:17 =33,688  km/h

49  Winner Anacona  Movistar04h 21' 03"+  00:14:18 =33,557  km/h

50  Daryl Impey  ORICA BikeExchange04h 21' 18"+  00:14:33 =33,525  km/h

51  Jasper Stuyven  Trek-Segafredo04h 22' 00"+  00:15:15 =33,435  km/h

52  Paul Voss  Bora-Argon 1804h 22' 51"+  00:16:06 =33,327  km/h

53  Brent Bookwalter  BMC04h 24' 10"+  00:17:25 =33,161  km/h

54  Tanel Kangert  Astana Pro Team04h 24' 23"+  00:17:38 =33,134  km/h

55  Luis León Sánchez  Astana Pro Team04h 24' 23"+  00:17:38 =33,134  km/h

56  Fabio Aru  Astana Pro Team04h 24' 23"+  00:17:38 =33,134  km/h

57  Diego Rosa  Astana Pro Team04h 24' 23"+  00:17:38 =33,134  km/h

58  Alexey Lutsenko  Astana Pro Team04h 24' 23"+  00:17:38 =33,134  km/h

59  Tejay Van Garderen  BMC04h 24' 23"+  00:17:38 =33,134  km/h

60  Amaël Moinard  BMC04h 24' 23"+  00:17:38 =33,134  km/h

61  Mikel Landa  Sky Procycling04h 24' 23"+  00:17:38 =33,134  km/h

62  Fabrice Jeandesboz  Direct Energie04h 24' 48"+  00:18:03 =33,082  km/h

63  Mikaël Cherel  AG2R La Mondiale04h 24' 53"+  00:18:08 =33,071  km/h

64  Cyril Gautier  AG2R La Mondiale04h 24' 53"+  00:18:08 =33,071  km/h

65  Ben Gastauer  AG2R La Mondiale04h 24' 53"+  00:18:08 =33,071  km/h

66  Sep Vanmarcke  Lotto NL-Jumbo04h 26' 42"+  00:19:57 =32,846  km/h

67  Timo Roosen  Lotto NL-Jumbo04h 26' 42"+  00:19:57 =32,846  km/h

68  Patrick Konrad  Bora-Argon 1804h 26' 42"+  00:19:57 =32,846  km/h

69  George Bennett  Lotto NL-Jumbo04h 26' 42"+  00:19:57 =32,846  km/h

70  Warren Barguil  Giant-Alpecin04h 26' 42"+  00:19:57 =32,846  km/h

71  Matteo Bono  Lampre-Merida04h 27' 38"+  00:20:53 =32,731  km/h

72  Kristijan Ðurasek  Lampre-Merida04h 27' 38"+  00:20:53 =32,731  km/h

73  Georg Preidler  Giant-Alpecin04h 27' 38"+  00:20:53 =32,731  km/h

74  Dylan Van Baarle  Cannondale Pro Cycling04h 27' 38"+  00:20:53 =32,731  km/h

75  Michael Schär  BMC04h 27' 38"+  00:20:53 =32,731  km/h

76  Tony Gallopin  Lotto Soudal04h 27' 38"+  00:20:53 =32,731  km/h

77  Imanol Erviti  Movistar04h 27' 38"+  00:20:53 =32,731  km/h

78  Oliver Naesen  IAM Cycling04h 27' 38"+  00:20:53 =32,731  km/h

79  Jérôme Coppel  IAM Cycling04h 27' 38"+  00:20:53 =32,731  km/h

80  Tsgabu Grmay  Lampre-Merida04h 27' 53"+  00:21:08 =32,701  km/h

81  Christopher Juul Jensen  ORICA BikeExchange04h 28' 54"+  00:22:09 =32,577  km/h

82  Luka Pibernik  Lampre-Merida04h 29' 20"+  00:22:35 =32,525  km/h

83  Nelson Oliveira  Movistar04h 29' 20"+  00:22:35 =32,525  km/h

84  Cesare Benedetti  Bora-Argon 1804h 29' 44"+  00:22:59 =32,477  km/h

85  Paul Martens  Lotto NL-Jumbo04h 30' 43"+  00:23:58 =32,359  km/h

86  Peter Stetina  Trek-Segafredo04h 33' 16"+  00:26:31 =32,057  km/h

87  Jan Bárta  Bora-Argon 1804h 33' 16"+  00:26:31 =32,057  km/h

88  Jakob Fuglsang  Astana Pro Team04h 33' 41"+  00:26:56 =32,008  km/h

89  Alexis Gougeard  AG2R La Mondiale04h 33' 41"+  00:26:56 =32,008  km/h

90  Robert Kišerlovski  Tinkoff04h 34' 07"+  00:27:22 =31,957  km/h

91  Steve Morabito  FDJ04h 34' 42"+  00:27:57 =31,889  km/h

92  Daniel Teklehaimanot  Dimension Data04h 34' 42"+  00:27:57 =31,889  km/h

93  Jérôme Cousin  Cofidis – Solutions Crédits04h 34' 42"+  00:27:57 =31,889  km/h

94  Alberto Losada  Katusha04h 34' 42"+  00:27:57 =31,889  km/h

95  Tom-Jelte Slagter  Cannondale Pro Cycling04h 34' 42"+  00:27:57 =31,889  km/h

96  Vasil Kiryienka  Sky Procycling04h 34' 42"+  00:27:57 =31,889  km/h

97  Peter Sagan  Tinkoff04h 35' 02"+  00:28:17 =31,851  km/h

98  Rubén Plaza  ORICA BikeExchange04h 36' 19"+  00:29:34 =31,703  km/h

99  Marco Haller  Katusha04h 36' 22"+  00:29:37 =31,697  km/h

100  Antoine Duchesne  Direct Energie04h 36' 25"+  00:29:40 =31,691  km/h

101  Marcus Burghardt  BMC04h 36' 37"+  00:29:52 =31,668  km/h

102  Luke Rowe  Sky Procycling04h 36' 37"+  00:29:52 =31,668  km/h

103  Michael Matthews  ORICA BikeExchange04h 36' 37"+  00:29:52 =31,668  km/h

104  Vegard Breen  Fortuneo-Vital Concept04h 36' 37"+  00:29:52 =31,668  km/h

105  Adam Hansen  Lotto Soudal04h 36' 37"+  00:29:52 =31,668  km/h

106  Greg Van Avermaet  BMC04h 36' 37"+  00:29:52 =31,668  km/h

107  Ian Stannard  Sky Procycling04h 36' 37"+  00:29:52 =31,668  km/h

108  Paolo Tiralongo  Astana Pro Team04h 36' 37"+  00:29:52 =31,668  km/h

109  Kristjan Koren  Cannondale Pro Cycling04h 36' 37"+  00:29:52 =31,668  km/h

110  Bert-Jan Lindeman  Lotto NL-Jumbo04h 36' 37"+  00:29:52 =31,668  km/h

111  Chris Anker Sørensen  Fortuneo-Vital Concept04h 36' 37"+  00:29:52 =31,668  km/h

112  Anthony Delaplace  Fortuneo-Vital Concept04h 36' 37"+  00:29:52 =31,668  km/h

113  Bryan Coquard  Direct Energie04h 36' 53"+  00:30:08 =31,638  km/h

114  Yukiya  Arashiro  Lampre-Merida04h 36' 53"+  00:30:08 =31,638  km/h

115  Romain Sicard  Direct Energie04h 36' 53"+  00:30:08 =31,638  km/h

116  Ángel Vicioso  Katusha04h 37' 09"+  00:30:24 =31,607  km/h

117  Brice Feillu  Fortuneo-Vital Concept04h 37' 29"+  00:30:44 =31,569  km/h

118  Sondre Holst Enger  IAM Cycling04h 40' 11"+  00:33:26 =31,265  km/h

119  Oscar Gatto  Tinkoff04h 40' 31"+  00:33:46 =31,228  km/h

120  Jürgen Roelandts  Lotto Soudal04h 40' 31"+  00:33:46 =31,228  km/h

121  Maximiliano Richeze  Etixx-Quick Step04h 40' 31"+  00:33:46 =31,228  km/h

122  Roy Curvers  Giant-Alpecin04h 40' 31"+  00:33:46 =31,228  km/h

123  André Greipel  Lotto Soudal04h 40' 31"+  00:33:46 =31,228  km/h

124  Andriy Grivko  Astana Pro Team04h 40' 31"+  00:33:46 =31,228  km/h

125  Fabio Sabatini  Etixx-Quick Step04h 40' 39"+  00:33:54 =31,213  km/h

126  Matteo Tosatto  Tinkoff04h 40' 39"+  00:33:54 =31,213  km/h

127  Marcel Sieberg  Lotto Soudal04h 40' 43"+  00:33:58 =31,206  km/h

128  Robert Wagner  Lotto NL-Jumbo04h 40' 43"+  00:33:58 =31,206  km/h

129  Arnold Jeannesson  Cofidis – Solutions Crédits04h 40' 43"+  00:33:58 =31,206  km/h

130  Lawson Craddock  Cannondale Pro Cycling04h 40' 43"+  00:33:58 =31,206  km/h

131  Marcel Kittel  Etixx-Quick Step04h 40' 53"+  00:34:08 =31,187  km/h

132  Gregory Rast  Trek-Segafredo04h 40' 53"+  00:34:08 =31,187  km/h

133  Petr Vakoč  Etixx-Quick Step04h 40' 53"+  00:34:08 =31,187  km/h

134  Jacopo Guarnieri  Katusha04h 40' 53"+  00:34:08 =31,187  km/h

135  Alexander Kristoff  Katusha04h 40' 53"+  00:34:08 =31,187  km/h

136  Eduardo Sepulveda  Fortuneo-Vital Concept04h 40' 53"+  00:34:08 =31,187  km/h

137  Florian Vachon  Fortuneo-Vital Concept04h 40' 53"+  00:34:08 =31,187  km/h

138  Reinardt Janse Van Rensburg  Dimension Data04h 40' 53"+  00:34:08 =31,187  km/h

139  Daniel McLay  Fortuneo-Vital Concept04h 40' 53"+  00:34:08 =31,187  km/h

140  Davide Cimolai  Lampre-Merida04h 40' 53"+  00:34:08 =31,187  km/h

141  Jérémy Roy  FDJ04h 40' 53"+  00:34:08 =31,187  km/h

142  Leigh Howard  IAM Cycling04h 40' 53"+  00:34:08 =31,187  km/h

143  Mathew Hayman  ORICA BikeExchange04h 40' 53"+  00:34:08 =31,187  km/h

144  Cyril Lemoine  Cofidis – Solutions Crédits04h 40' 53"+  00:34:08 =31,187  km/h

145  William  Bonnet  FDJ04h 40' 53"+  00:34:08 =31,187  km/h

146  Bernhard Eisel  Dimension Data04h 40' 53"+  00:34:08 =31,187  km/h

147  Armindo Fonseca  Fortuneo-Vital Concept04h 40' 53"+  00:34:08 =31,187  km/h

148  Gregory Henderson  Lotto Soudal04h 40' 53"+  00:34:08 =31,187  km/h

149  Dylan Groenewegen  Lotto NL-Jumbo04h 40' 53"+  00:34:08 =31,187  km/h

150  Luke Durbridge  ORICA BikeExchange04h 40' 53"+  00:34:08 =31,187  km/h

151  John Degenkolb  Giant-Alpecin04h 40' 53"+  00:34:08 =31,187  km/h

152  Alex Howes  Cannondale Pro Cycling04h 40' 53"+  00:34:08 =31,187  km/h

153  Serge Pauwels  Dimension Data04h 40' 53"+  00:34:08 =31,187  km/h

154  Samuel Dumoulin  AG2R La Mondiale04h 40' 53"+  00:34:08 =31,187  km/h

155  Christophe Laporte  Cofidis – Solutions Crédits04h 40' 53"+  00:34:08 =31,187  km/h

156  Maarten Wynants  Lotto NL-Jumbo04h 40' 53"+  00:34:08 =31,187  km/h

157  Natnael Berhane  Dimension Data04h 40' 53"+  00:34:08 =31,187  km/h

158  Lars Bak  Lotto Soudal04h 40' 53"+  00:34:08 =31,187  km/h

159  Markel Irizar  Trek-Segafredo04h 40' 53"+  00:34:08 =31,187  km/h

160  Iljo Keisse  Etixx-Quick Step04h 40' 53"+  00:34:08 =31,187  km/h

161  Thomas  Voeckler  Direct Energie04h 41' 17"+  00:34:32 =31,143  km/h

162  Yohann Gène  Direct Energie04h 41' 17"+  00:34:32 =31,143  km/h

163  Albert Timmer  Giant-Alpecin04h 41' 19"+  00:34:34 =31,139  km/h

164  Ramon Sinkeldam  Giant-Alpecin04h 41' 19"+  00:34:34 =31,139  km/h

165  Laurens Ten Dam  Giant-Alpecin04h 41' 19"+  00:34:34 =31,139  km/h

166  Ramūnas Navardauskas  Cannondale Pro Cycling04h 41' 19"+  00:34:34 =31,139  km/h

167  Andreas Schillinger  Bora-Argon 1804h 41' 19"+  00:34:34 =31,139  km/h

168  Michael Albasini  ORICA BikeExchange04h 41' 19"+  00:34:34 =31,139  km/h

169  Sam Bennett  Bora-Argon 1804h 41' 19"+  00:34:34 =31,139  km/h

170  Stephen Cummings  Dimension Data04h 41' 19"+  00:34:34 =31,139  km/h

171  Edvald Boasson Hagen  Dimension Data04h 41' 19"+  00:34:34 =31,139  km/h

172  Maciej Bodnar  Tinkoff04h 41' 45"+  00:35:00 =31,091  km/h

173  Adrien Petit  Direct Energie04h 42' 13"+  00:35:28 =31,040  km/h

174  Geoffrey Soupe  Cofidis – Solutions Crédits04h 42' 13"+  00:35:28 =31,040  km/h

175  Tony Martin  Etixx-Quick Step04h 43' 04"+  00:36:19 =30,947  km/h


Todays birthdays.

1888 • Giuseppe Contesini
1911 • Edmond Pages
1935 • Eddy Pauwels
1940 • Julien Haelterman
1958 • Luc Colijn
1962 • Jean-François Bernard
1984 • Yann Huguet
1993 • Owain Doull

 

Optimized for Chrome - Edge
and Opera browsers.